GFSGBSN_prec_precacc24_096.txt.gz
Total_Precipitation_Accumulation
0.02 0.01 0.01 0.02 0.01 0.02 0.02 0.02 0.02 0.01 0.00 0.00 0.00 0.00 0.00 0.00 0.00 0.00 0.00 0.00 0.00 0.00 0.00 0.00 0.00 0.00 0.00 0.00 0.00 0.00 0.00 0.00 0.00 0.00 0.00 0.00 0.00 0.00 0.00 0.00 0.00 0.00 0.00 0.00 0.00 0.00 0.00
0.02 0.02 0.03 0.02 0.02 0.03 0.02 0.01 0.01 0.00 0.00 0.00 0.00 0.00 0.00 0.00 0.00 0.00 0.00 0.00 0.00 0.00 0.00 0.00 0.00 0.01 0.00 0.00 0.00 0.00 0.00 0.00 0.00 0.00 0.00 0.00 0.00 0.00 0.00 0.00 0.00 0.00 0.00 0.00 0.00 0.00 0.00
0.04 0.04 0.04 0.04 0.04 0.03 0.02 0.01 0.01 0.01 0.01 0.01 0.01 0.00 0.00 0.00 0.00 0.00 0.00 0.00 0.00 0.00 0.00 0.00 0.00 0.01 0.00 0.00 0.00 0.00 0.00 0.00 0.00 0.00 0.00 0.00 0.00 0.00 0.00 0.00 0.00 0.00 0.00 0.00 0.00 0.00 0.00
0.03 0.04 0.05 0.04 0.04 0.04 0.02 0.01 0.01 0.01 0.02 0.01 0.01 0.01 0.00 0.00 0.00 0.00 0.00 0.00 0.00 0.00 0.00 0.00 0.00 0.01 0.00 0.00 0.00 0.00 0.00 0.00 0.00 0.00 0.00 0.00 0.00 0.00 0.00 0.00 0.00 0.00 0.00 0.00 0.00 0.00 0.00
0.04 0.05 0.04 0.04 0.04 0.04 0.03 0.02 0.02 0.02 0.02 0.02 0.02 0.02 0.01 0.00 0.00 0.00 0.00 0.00 0.00 0.00 0.00 0.00 0.01 0.01 0.00 0.00 0.00 0.00 0.00 0.00 0.00 0.00 0.00 0.00 0.00 0.00 0.00 0.00 0.00 0.00 0.00 0.00 0.00 0.00 0.00
0.04 0.04 0.04 0.04 0.04 0.03 0.03 0.03 0.03 0.03 0.03 0.03 0.02 0.01 0.01 0.00 0.00 0.00 0.00 0.00 0.00 0.00 0.00 0.00 0.00 0.00 0.00 0.00 0.00 0.00 0.00 0.00 0.00 0.00 0.00 0.00 0.00 0.00 0.00 0.00 0.00 0.00 0.00 0.00 0.00 0.00 0.00
0.04 0.04 0.04 0.04 0.04 0.04 0.04 0.04 0.05 0.05 0.03 0.02 0.02 0.02 0.01 0.00 0.00 0.00 0.00 0.00 0.00 0.00 0.00 0.00 0.00 0.00 0.00 0.00 0.00 0.00 0.00 0.00 0.00 0.00 0.00 0.00 0.00 0.00 0.00 0.00 0.00 0.00 0.00 0.00 0.00 0.00 0.00
0.04 0.04 0.04 0.04 0.04 0.04 0.05 0.05 0.05 0.05 0.03 0.02 0.03 0.02 0.00 0.01 0.00 0.00 0.00 0.00 0.01 0.03 0.04 0.00 0.00 0.00 0.00 0.00 0.00 0.00 0.00 0.00 0.00 0.00 0.00 0.00 0.02 0.00 0.00 0.00 0.00 0.00 0.00 0.00 0.00 0.00 0.00
0.03 0.04 0.04 0.05 0.04 0.04 0.04 0.05 0.05 0.05 0.04 0.03 0.02 0.01 0.00 0.01 0.00 0.00 0.00 0.00 0.00 0.00 0.02 0.00 0.00 0.00 0.00 0.00 0.00 0.00 0.00 0.00 0.00 0.01 0.01 0.03 0.01 0.00 0.00 0.00 0.00 0.00 0.00 0.00 0.00 0.00 0.01
0.05 0.05 0.04 0.05 0.06 0.06 0.06 0.06 0.05 0.04 0.03 0.02 0.02 0.02 0.02 0.01 0.00 0.00 0.00 0.00 0.00 0.01 0.03 0.00 0.00 0.00 0.00 0.00 0.00 0.00 0.00 0.00 0.01 0.01 0.02 0.03 0.00 0.01 0.04 0.04 0.00 0.00 0.00 0.00 0.01 0.03 0.04
0.06 0.07 0.08 0.06 0.06 0.06 0.05 0.03 0.02 0.02 0.02 0.03 0.02 0.02 0.04 0.04 0.01 0.00 0.00 0.00 0.00 0.05 0.01 0.00 0.00 0.00 0.00 0.00 0.00 0.00 0.00 0.00 0.00 0.00 0.04 0.04 0.00 0.07 0.07 0.02 0.00 0.00 0.00 0.04 0.04 0.01 0.01
0.05 0.04 0.05 0.05 0.05 0.04 0.04 0.04 0.04 0.05 0.04 0.03 0.04 0.04 0.07 0.03 0.04 0.01 0.00 0.00 0.08 0.10 0.01 0.00 0.00 0.00 0.00 0.00 0.00 0.00 0.00 0.00 0.00 0.01 0.02 0.01 0.00 0.04 0.03 0.00 0.03 0.07 0.03 0.07 0.04 0.06 0.08
0.04 0.04 0.04 0.06 0.07 0.06 0.05 0.07 0.05 0.03 0.04 0.05 0.05 0.03 0.07 0.03 0.02 0.00 0.00 0.03 0.11 0.09 0.00 0.01 0.00 0.00 0.00 0.00 0.00 0.00 0.00 0.00 0.00 0.01 0.01 0.01 0.00 0.00 0.00 0.01 0.02 0.08 0.18 0.32 0.26 0.19 0.08
0.07 0.06 0.07 0.07 0.07 0.07 0.07 0.06 0.05 0.05 0.04 0.04 0.05 0.05 0.04 0.03 0.03 0.03 0.05 0.09 0.09 0.00 0.00 0.00 0.00 0.00 0.00 0.00 0.00 0.00 0.00 0.00 0.00 0.00 0.01 0.06 0.03 0.01 0.00 0.00 0.01 0.06 0.20 0.20 0.10 0.04 0.01
0.07 0.08 0.07 0.07 0.08 0.07 0.08 0.08 0.07 0.05 0.03 0.05 0.06 0.02 0.05 0.03 0.07 0.11 0.19 0.16 0.02 0.01 0.04 0.02 0.00 0.01 0.00 0.00 0.00 0.00 0.00 0.00 0.00 0.00 0.01 0.01 0.01 0.00 0.00 0.00 0.03 0.09 0.13 0.09 0.37 0.15 0.09
0.08 0.07 0.08 0.07 0.07 0.06 0.06 0.06 0.07 0.07 0.07 0.10 0.08 0.09 0.03 0.03 0.16 0.24 0.38 0.14 0.00 0.02 0.05 0.12 0.07 0.01 0.01 0.00 0.00 0.00 0.03 0.01 0.00 0.00 0.00 0.00 0.00 0.00 0.00 0.00 0.00 0.05 0.19 0.29 0.45 0.18 0.10
0.05 0.05 0.06 0.07 0.07 0.07 0.08 0.08 0.09 0.09 0.12 0.14 0.16 0.20 0.03 0.06 0.35 0.47 0.46 0.08 0.00 0.01 0.07 0.23 0.16 0.04 0.02 0.00 0.00 0.03 0.10 0.03 0.00 0.00 0.00 0.00 0.00 0.02 0.01 0.00 0.01 0.03 0.25 0.27 0.24 0.14 0.17
0.07 0.06 0.06 0.06 0.07 0.07 0.08 0.10 0.14 0.18 0.18 0.16 0.26 0.27 0.15 0.24 0.47 0.40 0.23 0.04 0.01 0.02 0.06 0.16 0.16 0.08 0.05 0.00 0.01 0.04 0.09 0.02 0.00 0.00 0.00 0.00 0.00 0.01 0.01 0.00 0.01 0.03 0.05 0.19 0.43 0.22 0.11
0.07 0.07 0.06 0.07 0.07 0.08 0.08 0.12 0.16 0.17 0.17 0.22 0.36 0.19 0.27 0.54 0.40 0.26 0.16 0.03 0.01 0.01 0.02 0.14 0.13 0.08 0.05 0.01 0.00 0.05 0.08 0.03 0.00 0.00 0.00 0.00 0.01 0.01 0.07 0.05 0.05 0.05 0.09 0.20 0.21 0.34 0.40
0.08 0.09 0.07 0.07 0.07 0.08 0.09 0.16 0.17 0.12 0.16 0.30 0.51 0.37 0.33 0.74 0.53 0.14 0.14 0.06 0.02 0.00 0.00 0.05 0.13 0.10 0.02 0.02 0.01 0.02 0.04 0.01 0.00 0.00 0.00 0.00 0.02 0.04 0.13 0.34 0.40 0.21 0.16 0.16 0.29 0.37 0.16
0.10 0.09 0.10 0.10 0.09 0.07 0.07 0.17 0.19 0.12 0.20 0.35 0.53 0.37 0.26 0.37 0.38 0.23 0.19 0.21 0.13 0.08 0.04 0.05 0.21 0.06 0.01 0.02 0.01 0.00 0.00 0.00 0.00 0.00 0.00 0.00 0.00 0.00 0.03 0.12 0.21 0.25 0.23 0.23 0.29 0.20 0.24
0.14 0.15 0.16 0.15 0.14 0.11 0.09 0.09 0.14 0.14 0.26 0.34 0.43 0.19 0.14 0.14 0.18 0.36 0.35 0.21 0.10 0.11 0.11 0.05 0.04 0.01 0.00 0.00 0.00 0.00 0.00 0.00 0.00 0.00 0.00 0.00 0.00 0.00 0.00 0.00 0.01 0.01 0.05 0.13 0.19 0.27 0.27
0.15 0.16 0.18 0.21 0.23 0.23 0.17 0.12 0.11 0.10 0.22 0.29 0.21 0.14 0.25 0.17 0.07 0.29 0.44 0.28 0.20 0.14 0.09 0.01 0.01 0.03 0.02 0.01 0.00 0.00 0.00 0.00 0.00 0.00 0.00 0.00 0.01 0.00 0.00 0.00 0.00 0.00 0.00 0.00 0.02 0.04 0.11
0.08 0.10 0.12 0.14 0.18 0.23 0.29 0.28 0.23 0.18 0.11 0.14 0.11 0.09 0.23 0.19 0.13 0.07 0.05 0.09 0.11 0.07 0.11 0.05 0.04 0.05 0.03 0.00 0.01 0.01 0.00 0.00 0.00 0.00 0.00 0.00 0.01 0.02 0.01 0.01 0.01 0.00 0.01 0.00 0.08 0.15 0.05
0.10 0.10 0.11 0.12 0.16 0.23 0.31 0.33 0.27 0.23 0.17 0.12 0.14 0.16 0.14 0.13 0.09 0.06 0.04 0.06 0.10 0.11 0.08 0.07 0.05 0.07 0.11 0.07 0.09 0.05 0.02 0.02 0.00 0.00 0.00 0.00 0.02 0.05 0.03 0.00 0.00 0.00 0.00 0.00 0.03 0.05 0.03
0.11 0.10 0.10 0.10 0.11 0.15 0.21 0.30 0.37 0.33 0.26 0.23 0.14 0.16 0.26 0.27 0.08 0.01 0.03 0.05 0.08 0.14 0.18 0.10 0.13 0.18 0.17 0.25 0.22 0.12 0.08 0.06 0.05 0.02 0.00 0.00 0.01 0.05 0.08 0.06 0.00 0.00 0.00 0.00 0.00 0.03 0.01
0.09 0.09 0.09 0.10 0.11 0.13 0.19 0.27 0.35 0.37 0.39 0.35 0.25 0.16 0.36 0.38 0.06 0.04 0.02 0.04 0.06 0.13 0.23 0.17 0.23 0.30 0.32 0.25 0.19 0.08 0.07 0.06 0.12 0.15 0.05 0.02 0.04 0.06 0.05 0.08 0.02 0.00 0.00 0.01 0.05 0.04 0.00
0.09 0.09 0.08 0.08 0.10 0.12 0.17 0.24 0.40 0.50 0.49 0.59 0.42 0.15 0.22 0.28 0.08 0.03 0.04 0.07 0.07 0.16 0.31 0.26 0.49 0.36 0.37 0.24 0.14 0.09 0.10 0.10 0.06 0.14 0.14 0.10 0.10 0.08 0.07 0.11 0.04 0.00 0.05 0.14 0.12 0.01 0.00
0.07 0.06 0.06 0.07 0.09 0.13 0.16 0.18 0.27 0.52 0.71 0.94 0.88 0.24 0.20 0.28 0.19 0.08 0.03 0.02 0.05 0.13 0.35 0.43 0.30 0.37 0.24 0.30 0.20 0.14 0.15 0.12 0.08 0.10 0.21 0.25 0.06 0.08 0.03 0.03 0.09 0.13 0.08 0.08 0.02 0.01 0.01

GFSGBSN_prec_precacc24_099.txt.gz
Total_Precipitation_Accumulation
0.01 0.01 0.01 0.01 0.01 0.01 0.02 0.01 0.01 0.01 0.00 0.00 0.00 0.00 0.01 0.00 0.00 0.00 0.00 0.00 0.00 0.00 0.00 0.00 0.00 0.00 0.00 0.00 0.00 0.00 0.00 0.00 0.00 0.00 0.00 0.00 0.00 0.00 0.00 0.00 0.00 0.00 0.00 0.00 0.00 0.00 0.00
0.02 0.02 0.02 0.02 0.02 0.02 0.02 0.01 0.01 0.00 0.00 0.00 0.01 0.00 0.00 0.00 0.00 0.00 0.00 0.00 0.00 0.00 0.00 0.00 0.00 0.01 0.00 0.00 0.00 0.00 0.00 0.00 0.00 0.00 0.00 0.00 0.00 0.00 0.00 0.00 0.00 0.00 0.00 0.00 0.00 0.00 0.00
0.03 0.03 0.03 0.03 0.03 0.02 0.01 0.01 0.01 0.01 0.01 0.02 0.01 0.00 0.00 0.00 0.00 0.00 0.00 0.00 0.00 0.00 0.00 0.00 0.00 0.01 0.00 0.00 0.00 0.00 0.00 0.00 0.00 0.00 0.00 0.00 0.00 0.00 0.00 0.00 0.00 0.00 0.00 0.00 0.00 0.00 0.00
0.02 0.04 0.04 0.04 0.03 0.03 0.02 0.01 0.01 0.01 0.02 0.01 0.01 0.01 0.00 0.00 0.00 0.00 0.00 0.00 0.00 0.00 0.00 0.00 0.00 0.01 0.00 0.00 0.00 0.00 0.00 0.00 0.00 0.00 0.00 0.00 0.00 0.00 0.00 0.00 0.00 0.00 0.00 0.00 0.00 0.00 0.00
0.04 0.04 0.04 0.04 0.04 0.03 0.02 0.02 0.02 0.01 0.02 0.03 0.02 0.02 0.01 0.00 0.00 0.00 0.00 0.00 0.00 0.00 0.00 0.00 0.01 0.01 0.00 0.00 0.00 0.00 0.00 0.00 0.00 0.00 0.00 0.00 0.00 0.00 0.00 0.00 0.00 0.00 0.00 0.00 0.00 0.00 0.00
0.03 0.03 0.03 0.03 0.03 0.03 0.02 0.03 0.03 0.02 0.02 0.03 0.02 0.01 0.01 0.00 0.00 0.00 0.00 0.00 0.00 0.00 0.00 0.00 0.01 0.00 0.00 0.00 0.00 0.00 0.00 0.00 0.00 0.00 0.00 0.00 0.00 0.00 0.00 0.00 0.00 0.00 0.00 0.00 0.00 0.00 0.00
0.04 0.03 0.03 0.04 0.04 0.04 0.04 0.04 0.04 0.04 0.03 0.02 0.02 0.02 0.01 0.00 0.00 0.00 0.00 0.00 0.00 0.00 0.00 0.00 0.00 0.00 0.00 0.00 0.00 0.00 0.00 0.00 0.00 0.00 0.00 0.00 0.00 0.00 0.00 0.00 0.00 0.00 0.00 0.00 0.00 0.00 0.00
0.02 0.03 0.04 0.04 0.04 0.04 0.04 0.05 0.05 0.04 0.02 0.02 0.02 0.01 0.00 0.01 0.00 0.00 0.00 0.00 0.01 0.04 0.07 0.00 0.00 0.00 0.00 0.00 0.00 0.00 0.00 0.00 0.00 0.00 0.00 0.00 0.02 0.00 0.00 0.00 0.00 0.00 0.00 0.00 0.00 0.00 0.00
0.02 0.03 0.04 0.04 0.04 0.04 0.04 0.05 0.04 0.04 0.03 0.03 0.02 0.00 0.00 0.01 0.00 0.00 0.00 0.00 0.00 0.01 0.04 0.00 0.00 0.00 0.00 0.00 0.00 0.00 0.00 0.00 0.00 0.01 0.01 0.03 0.01 0.00 0.00 0.00 0.00 0.00 0.00 0.00 0.00 0.00 0.01
0.04 0.03 0.03 0.04 0.05 0.05 0.05 0.05 0.04 0.03 0.03 0.02 0.02 0.01 0.02 0.01 0.00 0.00 0.00 0.00 0.00 0.02 0.09 0.00 0.00 0.00 0.00 0.00 0.00 0.00 0.00 0.00 0.01 0.01 0.02 0.03 0.00 0.01 0.04 0.04 0.00 0.00 0.00 0.00 0.01 0.03 0.04
0.05 0.05 0.06 0.05 0.05 0.05 0.05 0.03 0.02 0.02 0.02 0.03 0.02 0.01 0.03 0.04 0.01 0.00 0.00 0.00 0.00 0.07 0.06 0.00 0.00 0.00 0.00 0.00 0.00 0.00 0.00 0.00 0.00 0.00 0.04 0.04 0.00 0.07 0.07 0.02 0.00 0.00 0.00 0.04 0.04 0.01 0.01
0.04 0.04 0.04 0.04 0.04 0.03 0.03 0.04 0.04 0.05 0.04 0.03 0.04 0.03 0.05 0.02 0.04 0.01 0.00 0.00 0.08 0.11 0.02 0.00 0.00 0.00 0.00 0.00 0.00 0.00 0.00 0.00 0.00 0.01 0.02 0.01 0.00 0.04 0.03 0.00 0.03 0.07 0.03 0.07 0.04 0.06 0.08
0.04 0.04 0.03 0.05 0.06 0.05 0.05 0.06 0.05 0.03 0.04 0.04 0.04 0.02 0.03 0.03 0.02 0.00 0.00 0.03 0.11 0.15 0.00 0.01 0.01 0.00 0.00 0.00 0.00 0.00 0.00 0.00 0.00 0.01 0.01 0.01 0.00 0.00 0.00 0.01 0.02 0.08 0.18 0.32 0.26 0.19 0.08
0.06 0.05 0.06 0.05 0.06 0.06 0.06 0.06 0.05 0.05 0.04 0.04 0.04 0.03 0.02 0.03 0.03 0.03 0.05 0.09 0.09 0.00 0.00 0.00 0.00 0.00 0.00 0.00 0.00 0.00 0.00 0.00 0.00 0.00 0.01 0.05 0.03 0.01 0.00 0.00 0.01 0.06 0.20 0.20 0.10 0.04 0.01
0.06 0.06 0.05 0.05 0.07 0.07 0.07 0.07 0.06 0.05 0.04 0.05 0.03 0.01 0.03 0.03 0.07 0.11 0.19 0.16 0.02 0.02 0.08 0.05 0.03 0.05 0.07 0.00 0.00 0.00 0.00 0.00 0.00 0.00 0.01 0.01 0.01 0.00 0.00 0.00 0.03 0.09 0.13 0.09 0.37 0.16 0.09
0.06 0.06 0.06 0.06 0.06 0.05 0.06 0.06 0.06 0.07 0.07 0.08 0.04 0.06 0.01 0.03 0.16 0.22 0.34 0.14 0.00 0.03 0.08 0.18 0.27 0.15 0.14 0.01 0.01 0.00 0.03 0.01 0.00 0.00 0.00 0.00 0.00 0.00 0.00 0.00 0.00 0.05 0.19 0.30 0.46 0.20 0.10
0.03 0.04 0.04 0.04 0.05 0.05 0.07 0.08 0.09 0.10 0.12 0.11 0.10 0.11 0.01 0.06 0.30 0.34 0.39 0.07 0.00 0.01 0.13 0.36 0.28 0.20 0.25 0.06 0.03 0.05 0.11 0.03 0.00 0.00 0.00 0.00 0.00 0.02 0.01 0.00 0.01 0.03 0.25 0.27 0.25 0.16 0.20
0.05 0.05 0.06 0.05 0.06 0.07 0.08 0.10 0.14 0.19 0.16 0.11 0.14 0.12 0.10 0.24 0.39 0.27 0.20 0.04 0.01 0.03 0.09 0.23 0.24 0.24 0.34 0.13 0.05 0.08 0.10 0.02 0.00 0.00 0.00 0.00 0.00 0.01 0.01 0.00 0.01 0.03 0.05 0.19 0.44 0.23 0.13
0.06 0.06 0.07 0.07 0.07 0.07 0.07 0.12 0.16 0.17 0.15 0.17 0.22 0.06 0.16 0.52 0.33 0.22 0.14 0.02 0.01 0.01 0.03 0.15 0.15 0.20 0.28 0.17 0.10 0.11 0.12 0.03 0.00 0.00 0.00 0.00 0.01 0.01 0.08 0.06 0.05 0.05 0.09 0.20 0.27 0.36 0.41
0.08 0.09 0.08 0.06 0.07 0.07 0.08 0.16 0.19 0.13 0.15 0.21 0.32 0.17 0.10 0.48 0.52 0.16 0.15 0.06 0.02 0.00 0.00 0.05 0.16 0.25 0.24 0.18 0.07 0.12 0.18 0.05 0.01 0.00 0.00 0.00 0.02 0.04 0.14 0.34 0.40 0.21 0.16 0.16 0.30 0.40 0.17
0.11 0.10 0.10 0.10 0.09 0.07 0.07 0.17 0.20 0.13 0.18 0.24 0.26 0.16 0.12 0.22 0.33 0.23 0.22 0.23 0.15 0.09 0.07 0.09 0.37 0.19 0.19 0.20 0.06 0.02 0.02 0.01 0.00 0.00 0.00 0.00 0.00 0.00 0.03 0.12 0.21 0.25 0.23 0.23 0.30 0.21 0.26
0.13 0.15 0.15 0.15 0.14 0.11 0.09 0.09 0.15 0.15 0.22 0.24 0.19 0.08 0.07 0.09 0.17 0.34 0.34 0.22 0.12 0.14 0.27 0.25 0.06 0.03 0.06 0.06 0.06 0.05 0.02 0.02 0.00 0.00 0.00 0.00 0.00 0.00 0.00 0.00 0.01 0.01 0.05 0.13 0.19 0.27 0.27
0.13 0.14 0.16 0.20 0.22 0.22 0.17 0.12 0.13 0.11 0.18 0.19 0.10 0.08 0.17 0.12 0.05 0.21 0.40 0.27 0.20 0.17 0.14 0.04 0.02 0.03 0.02 0.01 0.00 0.00 0.00 0.00 0.00 0.00 0.00 0.00 0.00 0.00 0.00 0.00 0.00 0.00 0.00 0.00 0.02 0.04 0.11
0.07 0.09 0.10 0.11 0.14 0.19 0.27 0.28 0.24 0.19 0.08 0.08 0.06 0.07 0.16 0.07 0.09 0.05 0.05 0.09 0.11 0.07 0.12 0.05 0.05 0.05 0.03 0.00 0.01 0.01 0.00 0.00 0.00 0.00 0.00 0.00 0.00 0.01 0.01 0.01 0.01 0.00 0.01 0.00 0.08 0.15 0.05
0.09 0.08 0.08 0.09 0.12 0.17 0.25 0.29 0.25 0.23 0.16 0.07 0.08 0.13 0.11 0.07 0.03 0.04 0.04 0.06 0.10 0.11 0.08 0.07 0.05 0.07 0.11 0.07 0.08 0.05 0.02 0.02 0.00 0.00 0.00 0.00 0.00 0.01 0.01 0.00 0.00 0.00 0.00 0.00 0.03 0.05 0.04
0.07 0.07 0.08 0.09 0.09 0.11 0.15 0.24 0.31 0.30 0.27 0.18 0.05 0.10 0.20 0.20 0.05 0.00 0.03 0.05 0.08 0.14 0.16 0.09 0.12 0.17 0.16 0.23 0.20 0.10 0.08 0.06 0.05 0.02 0.00 0.00 0.00 0.02 0.04 0.04 0.00 0.00 0.00 0.00 0.00 0.03 0.01
0.08 0.07 0.08 0.08 0.09 0.12 0.15 0.20 0.30 0.34 0.38 0.31 0.11 0.07 0.24 0.25 0.04 0.04 0.02 0.03 0.06 0.12 0.19 0.17 0.20 0.28 0.31 0.20 0.15 0.06 0.06 0.06 0.12 0.15 0.05 0.02 0.04 0.05 0.03 0.07 0.02 0.00 0.00 0.00 0.04 0.04 0.00
0.07 0.06 0.06 0.07 0.08 0.10 0.15 0.20 0.33 0.46 0.47 0.51 0.26 0.07 0.13 0.16 0.04 0.02 0.04 0.07 0.07 0.15 0.27 0.25 0.44 0.33 0.35 0.20 0.12 0.09 0.10 0.10 0.06 0.13 0.14 0.08 0.08 0.07 0.06 0.10 0.04 0.00 0.03 0.10 0.11 0.01 0.01
0.07 0.06 0.05 0.05 0.07 0.11 0.13 0.16 0.23 0.45 0.65 0.83 0.65 0.12 0.13 0.19 0.08 0.04 0.02 0.02 0.05 0.13 0.34 0.39 0.28 0.38 0.25 0.31 0.21 0.15 0.16 0.12 0.08 0.10 0.21 0.27 0.07 0.08 0.03 0.06 0.11 0.13 0.09 0.08 0.02 0.02 0.03

GFSGBSN_prec_precacc24_102.txt.gz
Total_Precipitation_Accumulation
0.01 0.01 0.01 0.01 0.01 0.01 0.01 0.01 0.01 0.00 0.00 0.00 0.00 0.00 0.01 0.00 0.00 0.00 0.00 0.00 0.00 0.00 0.00 0.00 0.00 0.00 0.00 0.00 0.00 0.00 0.00 0.00 0.00 0.00 0.00 0.00 0.00 0.00 0.00 0.00 0.00 0.00 0.00 0.00 0.00 0.00 0.00
0.02 0.02 0.02 0.02 0.01 0.02 0.01 0.01 0.01 0.00 0.00 0.00 0.01 0.00 0.00 0.00 0.00 0.00 0.00 0.00 0.00 0.00 0.00 0.00 0.00 0.01 0.00 0.00 0.00 0.00 0.00 0.00 0.00 0.00 0.00 0.00 0.00 0.00 0.00 0.00 0.00 0.00 0.00 0.00 0.00 0.00 0.00
0.03 0.03 0.03 0.03 0.02 0.01 0.01 0.01 0.01 0.01 0.01 0.01 0.01 0.00 0.00 0.00 0.00 0.00 0.00 0.00 0.00 0.00 0.00 0.00 0.00 0.01 0.00 0.00 0.00 0.00 0.00 0.00 0.00 0.00 0.00 0.00 0.00 0.00 0.00 0.00 0.00 0.00 0.00 0.00 0.00 0.00 0.00
0.01 0.03 0.04 0.03 0.03 0.02 0.02 0.01 0.01 0.01 0.01 0.01 0.01 0.01 0.00 0.00 0.00 0.00 0.00 0.00 0.00 0.00 0.00 0.00 0.00 0.01 0.00 0.00 0.00 0.00 0.00 0.00 0.00 0.00 0.00 0.00 0.00 0.00 0.00 0.00 0.00 0.00 0.00 0.00 0.00 0.00 0.00
0.02 0.03 0.03 0.03 0.03 0.03 0.02 0.02 0.02 0.01 0.02 0.02 0.02 0.01 0.01 0.00 0.00 0.00 0.00 0.00 0.00 0.00 0.00 0.00 0.01 0.01 0.00 0.00 0.00 0.00 0.00 0.00 0.00 0.00 0.00 0.00 0.00 0.00 0.00 0.00 0.00 0.00 0.00 0.00 0.00 0.00 0.00
0.02 0.02 0.02 0.02 0.02 0.02 0.02 0.03 0.03 0.02 0.02 0.02 0.01 0.01 0.01 0.00 0.00 0.00 0.00 0.00 0.00 0.00 0.00 0.00 0.01 0.00 0.00 0.00 0.00 0.00 0.00 0.00 0.00 0.00 0.00 0.00 0.00 0.00 0.00 0.00 0.00 0.00 0.00 0.00 0.00 0.00 0.00
0.03 0.03 0.03 0.03 0.03 0.03 0.04 0.03 0.04 0.04 0.02 0.01 0.02 0.01 0.01 0.00 0.00 0.00 0.00 0.00 0.00 0.00 0.00 0.00 0.00 0.00 0.00 0.00 0.00 0.00 0.00 0.00 0.00 0.00 0.00 0.00 0.00 0.00 0.00 0.00 0.00 0.00 0.00 0.00 0.00 0.00 0.00
0.01 0.01 0.02 0.03 0.03 0.03 0.04 0.04 0.04 0.04 0.02 0.02 0.02 0.01 0.00 0.00 0.00 0.00 0.00 0.00 0.01 0.05 0.07 0.00 0.00 0.00 0.00 0.00 0.00 0.00 0.00 0.00 0.00 0.00 0.00 0.01 0.02 0.00 0.00 0.00 0.00 0.00 0.00 0.00 0.00 0.00 0.00
0.02 0.03 0.03 0.04 0.04 0.04 0.04 0.04 0.04 0.04 0.02 0.02 0.02 0.00 0.00 0.00 0.00 0.00 0.00 0.00 0.00 0.01 0.05 0.00 0.00 0.00 0.00 0.00 0.00 0.00 0.00 0.00 0.00 0.01 0.01 0.03 0.01 0.00 0.00 0.00 0.00 0.00 0.00 0.00 0.00 0.00 0.01
0.03 0.02 0.03 0.03 0.04 0.05 0.05 0.05 0.04 0.03 0.02 0.02 0.01 0.01 0.01 0.01 0.00 0.00 0.00 0.00 0.00 0.02 0.10 0.00 0.00 0.00 0.00 0.00 0.00 0.00 0.00 0.00 0.01 0.01 0.02 0.04 0.00 0.01 0.04 0.04 0.00 0.00 0.00 0.00 0.01 0.03 0.04
0.03 0.04 0.04 0.03 0.04 0.05 0.04 0.03 0.01 0.01 0.02 0.02 0.02 0.01 0.03 0.03 0.01 0.00 0.00 0.00 0.00 0.07 0.07 0.00 0.00 0.00 0.00 0.00 0.00 0.00 0.00 0.00 0.00 0.00 0.04 0.04 0.00 0.07 0.07 0.02 0.00 0.00 0.00 0.04 0.04 0.01 0.01
0.03 0.03 0.03 0.02 0.02 0.02 0.02 0.03 0.03 0.04 0.04 0.03 0.03 0.03 0.03 0.01 0.03 0.01 0.00 0.00 0.08 0.11 0.02 0.00 0.01 0.01 0.01 0.00 0.00 0.00 0.00 0.00 0.00 0.01 0.01 0.01 0.00 0.04 0.03 0.00 0.03 0.07 0.03 0.07 0.04 0.06 0.08
0.03 0.03 0.03 0.03 0.03 0.03 0.04 0.05 0.04 0.03 0.04 0.04 0.04 0.01 0.01 0.02 0.02 0.00 0.00 0.03 0.11 0.14 0.00 0.01 0.01 0.00 0.00 0.00 0.00 0.00 0.00 0.00 0.00 0.01 0.01 0.01 0.01 0.00 0.00 0.01 0.02 0.08 0.18 0.32 0.27 0.19 0.08
0.03 0.02 0.03 0.04 0.04 0.03 0.04 0.05 0.05 0.04 0.04 0.04 0.04 0.02 0.00 0.01 0.03 0.03 0.05 0.09 0.09 0.00 0.00 0.00 0.00 0.00 0.05 0.04 0.03 0.00 0.00 0.00 0.00 0.00 0.01 0.05 0.03 0.00 0.00 0.00 0.01 0.06 0.20 0.20 0.10 0.04 0.01
0.04 0.04 0.04 0.04 0.04 0.04 0.05 0.06 0.06 0.05 0.04 0.05 0.02 0.00 0.01 0.02 0.06 0.10 0.18 0.16 0.01 0.02 0.10 0.06 0.03 0.08 0.26 0.08 0.08 0.00 0.00 0.00 0.00 0.00 0.01 0.01 0.01 0.00 0.00 0.00 0.03 0.09 0.13 0.09 0.37 0.16 0.09
0.04 0.03 0.04 0.04 0.04 0.04 0.03 0.04 0.05 0.06 0.07 0.07 0.02 0.04 0.01 0.02 0.13 0.18 0.28 0.12 0.00 0.03 0.08 0.20 0.38 0.19 0.29 0.08 0.16 0.01 0.03 0.01 0.00 0.00 0.00 0.00 0.00 0.00 0.00 0.00 0.00 0.05 0.19 0.30 0.46 0.20 0.10
0.02 0.02 0.02 0.03 0.03 0.03 0.04 0.05 0.07 0.10 0.12 0.09 0.06 0.08 0.00 0.04 0.26 0.21 0.29 0.06 0.00 0.01 0.13 0.38 0.33 0.27 0.35 0.16 0.26 0.12 0.12 0.03 0.00 0.00 0.00 0.00 0.01 0.03 0.01 0.00 0.01 0.03 0.25 0.27 0.25 0.16 0.20
0.03 0.03 0.04 0.03 0.05 0.06 0.06 0.07 0.11 0.19 0.16 0.08 0.10 0.08 0.08 0.20 0.34 0.15 0.11 0.04 0.01 0.03 0.09 0.23 0.25 0.30 0.43 0.23 0.33 0.24 0.12 0.03 0.00 0.00 0.00 0.00 0.01 0.02 0.02 0.00 0.01 0.03 0.05 0.19 0.44 0.23 0.14
0.05 0.05 0.06 0.06 0.06 0.06 0.07 0.10 0.14 0.16 0.13 0.13 0.18 0.04 0.12 0.44 0.29 0.18 0.08 0.02 0.01 0.01 0.03 0.15 0.16 0.28 0.44 0.37 0.37 0.23 0.16 0.03 0.00 0.00 0.01 0.01 0.02 0.03 0.12 0.08 0.05 0.05 0.09 0.21 0.27 0.37 0.41
0.08 0.09 0.08 0.06 0.06 0.07 0.07 0.14 0.16 0.11 0.13 0.16 0.29 0.14 0.07 0.30 0.41 0.15 0.12 0.05 0.02 0.00 0.01 0.07 0.24 0.44 0.49 0.42 0.28 0.31 0.23 0.05 0.02 0.00 0.00 0.00 0.02 0.05 0.15 0.35 0.41 0.21 0.16 0.16 0.30 0.40 0.17
0.09 0.09 0.10 0.09 0.09 0.07 0.07 0.16 0.18 0.11 0.16 0.17 0.18 0.12 0.10 0.16 0.20 0.16 0.21 0.23 0.15 0.12 0.10 0.18 0.47 0.32 0.34 0.41 0.31 0.25 0.22 0.07 0.04 0.01 0.01 0.01 0.00 0.00 0.03 0.12 0.21 0.25 0.23 0.23 0.30 0.21 0.26
0.10 0.13 0.14 0.14 0.13 0.11 0.08 0.09 0.14 0.13 0.18 0.17 0.13 0.05 0.05 0.06 0.13 0.27 0.28 0.18 0.12 0.19 0.37 0.34 0.10 0.05 0.08 0.09 0.19 0.18 0.15 0.08 0.06 0.02 0.02 0.01 0.00 0.00 0.00 0.00 0.01 0.01 0.05 0.13 0.19 0.27 0.27
0.08 0.09 0.12 0.17 0.20 0.21 0.16 0.12 0.14 0.12 0.14 0.15 0.08 0.07 0.11 0.07 0.03 0.09 0.24 0.26 0.20 0.19 0.15 0.06 0.02 0.04 0.03 0.01 0.00 0.00 0.00 0.00 0.00 0.00 0.00 0.00 0.00 0.00 0.00 0.00 0.00 0.00 0.00 0.00 0.02 0.04 0.11
0.06 0.06 0.07 0.08 0.11 0.17 0.25 0.26 0.24 0.20 0.07 0.07 0.04 0.05 0.12 0.04 0.04 0.02 0.03 0.07 0.09 0.07 0.12 0.05 0.05 0.05 0.03 0.00 0.01 0.01 0.00 0.00 0.00 0.00 0.00 0.00 0.00 0.00 0.00 0.00 0.01 0.00 0.01 0.00 0.08 0.15 0.06
0.08 0.07 0.07 0.06 0.08 0.13 0.21 0.25 0.22 0.23 0.16 0.04 0.05 0.09 0.07 0.05 0.01 0.01 0.02 0.04 0.09 0.10 0.08 0.07 0.05 0.07 0.11 0.06 0.07 0.04 0.02 0.02 0.00 0.00 0.00 0.00 0.00 0.01 0.00 0.00 0.00 0.00 0.00 0.00 0.03 0.05 0.04
0.06 0.06 0.07 0.07 0.07 0.07 0.10 0.19 0.26 0.24 0.26 0.14 0.03 0.07 0.16 0.14 0.02 0.00 0.00 0.01 0.06 0.13 0.15 0.09 0.09 0.17 0.15 0.19 0.16 0.09 0.07 0.06 0.04 0.02 0.00 0.00 0.00 0.02 0.02 0.02 0.00 0.00 0.00 0.00 0.00 0.03 0.02
0.06 0.06 0.06 0.07 0.08 0.08 0.09 0.14 0.24 0.27 0.33 0.25 0.06 0.03 0.19 0.17 0.02 0.02 0.01 0.01 0.04 0.10 0.15 0.15 0.15 0.25 0.28 0.16 0.12 0.05 0.06 0.05 0.12 0.14 0.04 0.02 0.03 0.04 0.02 0.05 0.02 0.00 0.00 0.00 0.04 0.04 0.00
0.06 0.05 0.05 0.05 0.06 0.06 0.11 0.15 0.29 0.41 0.40 0.39 0.17 0.03 0.08 0.08 0.01 0.01 0.02 0.05 0.05 0.13 0.23 0.22 0.33 0.25 0.28 0.16 0.10 0.08 0.10 0.10 0.06 0.14 0.14 0.08 0.09 0.06 0.05 0.09 0.05 0.00 0.02 0.09 0.11 0.02 0.01
0.06 0.06 0.05 0.05 0.07 0.09 0.10 0.12 0.20 0.40 0.59 0.75 0.51 0.06 0.10 0.14 0.04 0.02 0.01 0.01 0.04 0.12 0.30 0.33 0.26 0.38 0.26 0.30 0.20 0.16 0.16 0.13 0.09 0.12 0.21 0.30 0.08 0.08 0.05 0.10 0.18 0.14 0.09 0.09 0.03 0.05 0.06

GFSGBSN_prec_precacc24_105.txt.gz
Total_Precipitation_Accumulation
0.01 0.01 0.01 0.01 0.01 0.01 0.01 0.01 0.01 0.00 0.00 0.00 0.00 0.00 0.01 0.00 0.00 0.00 0.00 0.00 0.00 0.00 0.00 0.00 0.00 0.00 0.00 0.00 0.00 0.00 0.00 0.00 0.00 0.00 0.00 0.00 0.00 0.00 0.00 0.00 0.00 0.00 0.00 0.00 0.00 0.00 0.00
0.01 0.02 0.01 0.01 0.01 0.01 0.01 0.00 0.00 0.00 0.00 0.00 0.01 0.00 0.00 0.00 0.00 0.00 0.00 0.00 0.00 0.00 0.00 0.00 0.00 0.01 0.00 0.00 0.00 0.00 0.00 0.00 0.00 0.00 0.00 0.00 0.00 0.00 0.00 0.00 0.00 0.00 0.00 0.00 0.00 0.00 0.00
0.01 0.02 0.03 0.02 0.02 0.01 0.01 0.00 0.01 0.01 0.00 0.01 0.01 0.00 0.00 0.00 0.00 0.00 0.00 0.00 0.00 0.00 0.00 0.00 0.00 0.01 0.00 0.00 0.00 0.00 0.00 0.00 0.00 0.00 0.00 0.00 0.00 0.00 0.00 0.00 0.00 0.00 0.00 0.00 0.00 0.00 0.00
0.01 0.02 0.02 0.02 0.02 0.02 0.01 0.01 0.01 0.01 0.01 0.01 0.01 0.01 0.00 0.00 0.00 0.00 0.00 0.00 0.00 0.00 0.00 0.00 0.00 0.01 0.00 0.00 0.00 0.00 0.00 0.00 0.00 0.00 0.00 0.00 0.00 0.00 0.00 0.00 0.00 0.00 0.00 0.00 0.00 0.00 0.00
0.02 0.02 0.02 0.02 0.02 0.02 0.02 0.02 0.02 0.01 0.01 0.02 0.02 0.01 0.01 0.00 0.00 0.00 0.00 0.00 0.00 0.00 0.00 0.00 0.01 0.01 0.00 0.00 0.00 0.00 0.00 0.00 0.00 0.00 0.00 0.00 0.00 0.00 0.00 0.00 0.00 0.00 0.00 0.00 0.00 0.00 0.00
0.02 0.02 0.02 0.01 0.02 0.02 0.02 0.02 0.03 0.02 0.02 0.02 0.01 0.01 0.01 0.00 0.00 0.00 0.00 0.00 0.00 0.00 0.00 0.00 0.01 0.01 0.00 0.00 0.00 0.00 0.00 0.00 0.00 0.00 0.00 0.00 0.00 0.00 0.00 0.00 0.00 0.00 0.00 0.00 0.00 0.00 0.00
0.02 0.01 0.02 0.02 0.02 0.02 0.04 0.03 0.04 0.03 0.02 0.01 0.01 0.01 0.01 0.00 0.00 0.00 0.00 0.00 0.00 0.00 0.00 0.00 0.00 0.00 0.00 0.00 0.00 0.00 0.00 0.00 0.00 0.00 0.00 0.00 0.00 0.00 0.00 0.00 0.00 0.00 0.00 0.00 0.00 0.00 0.00
0.01 0.01 0.02 0.02 0.02 0.02 0.03 0.04 0.04 0.03 0.02 0.01 0.01 0.01 0.00 0.00 0.00 0.00 0.00 0.00 0.01 0.05 0.07 0.00 0.00 0.00 0.00 0.00 0.00 0.00 0.00 0.00 0.00 0.00 0.00 0.01 0.02 0.00 0.00 0.00 0.00 0.00 0.00 0.00 0.00 0.00 0.00
0.01 0.02 0.03 0.03 0.03 0.03 0.03 0.04 0.03 0.03 0.02 0.02 0.01 0.00 0.00 0.00 0.00 0.00 0.00 0.00 0.00 0.01 0.05 0.00 0.00 0.00 0.00 0.00 0.00 0.00 0.00 0.00 0.00 0.01 0.01 0.03 0.01 0.00 0.00 0.00 0.00 0.00 0.00 0.00 0.00 0.00 0.01
0.02 0.01 0.02 0.03 0.04 0.04 0.04 0.04 0.04 0.03 0.02 0.02 0.01 0.01 0.01 0.01 0.00 0.00 0.00 0.00 0.00 0.02 0.10 0.00 0.00 0.00 0.00 0.00 0.00 0.00 0.00 0.00 0.00 0.00 0.02 0.04 0.00 0.01 0.04 0.04 0.00 0.00 0.00 0.00 0.01 0.03 0.04
0.01 0.03 0.03 0.02 0.02 0.03 0.03 0.02 0.01 0.01 0.01 0.02 0.02 0.01 0.02 0.03 0.00 0.00 0.00 0.00 0.00 0.08 0.07 0.00 0.00 0.00 0.00 0.00 0.01 0.00 0.00 0.00 0.00 0.00 0.04 0.04 0.00 0.07 0.07 0.02 0.00 0.00 0.00 0.04 0.04 0.01 0.01
0.02 0.02 0.02 0.02 0.01 0.01 0.02 0.02 0.03 0.04 0.03 0.03 0.03 0.03 0.03 0.00 0.01 0.00 0.00 0.00 0.09 0.13 0.02 0.00 0.01 0.01 0.01 0.00 0.00 0.00 0.00 0.00 0.00 0.01 0.02 0.01 0.00 0.04 0.03 0.00 0.03 0.07 0.03 0.07 0.04 0.06 0.08
0.02 0.02 0.02 0.02 0.02 0.02 0.02 0.04 0.03 0.03 0.03 0.04 0.04 0.01 0.00 0.00 0.01 0.00 0.00 0.03 0.11 0.15 0.00 0.01 0.02 0.00 0.01 0.02 0.01 0.01 0.02 0.00 0.00 0.03 0.06 0.06 0.04 0.00 0.00 0.01 0.03 0.08 0.18 0.32 0.27 0.19 0.08
0.02 0.01 0.02 0.02 0.02 0.02 0.03 0.03 0.04 0.04 0.04 0.04 0.03 0.01 0.00 0.00 0.00 0.02 0.04 0.09 0.09 0.00 0.01 0.00 0.00 0.01 0.08 0.10 0.12 0.05 0.01 0.00 0.00 0.00 0.02 0.06 0.09 0.04 0.00 0.00 0.01 0.06 0.20 0.20 0.10 0.04 0.01
0.03 0.03 0.03 0.04 0.03 0.03 0.03 0.04 0.04 0.04 0.03 0.04 0.02 0.00 0.00 0.00 0.01 0.08 0.18 0.16 0.01 0.02 0.10 0.06 0.04 0.10 0.27 0.11 0.32 0.18 0.02 0.00 0.00 0.00 0.05 0.03 0.04 0.02 0.00 0.00 0.04 0.09 0.14 0.09 0.39 0.16 0.10
0.03 0.02 0.03 0.02 0.02 0.02 0.02 0.03 0.04 0.05 0.06 0.07 0.01 0.02 0.00 0.00 0.05 0.14 0.25 0.12 0.00 0.03 0.08 0.20 0.39 0.20 0.31 0.09 0.31 0.09 0.03 0.01 0.00 0.00 0.01 0.01 0.02 0.02 0.01 0.01 0.01 0.05 0.19 0.30 0.46 0.20 0.10
0.01 0.02 0.02 0.02 0.02 0.01 0.02 0.04 0.05 0.08 0.11 0.08 0.04 0.06 0.00 0.01 0.16 0.18 0.24 0.07 0.00 0.01 0.13 0.38 0.33 0.28 0.38 0.20 0.35 0.15 0.14 0.02 0.00 0.00 0.00 0.00 0.01 0.06 0.03 0.01 0.01 0.03 0.27 0.28 0.27 0.16 0.21
0.03 0.03 0.03 0.02 0.03 0.04 0.04 0.06 0.10 0.16 0.13 0.07 0.08 0.06 0.05 0.13 0.29 0.12 0.10 0.04 0.01 0.03 0.09 0.23 0.26 0.36 0.54 0.31 0.44 0.46 0.20 0.04 0.00 0.00 0.00 0.01 0.04 0.06 0.05 0.00 0.01 0.03 0.05 0.19 0.45 0.24 0.14
0.04 0.05 0.06 0.05 0.05 0.05 0.06 0.10 0.13 0.13 0.10 0.11 0.15 0.02 0.07 0.33 0.25 0.17 0.06 0.01 0.01 0.01 0.03 0.16 0.20 0.43 0.61 0.62 0.67 0.63 0.22 0.04 0.00 0.00 0.02 0.02 0.06 0.10 0.19 0.11 0.07 0.06 0.09 0.21 0.28 0.38 0.41
0.06 0.07 0.07 0.06 0.05 0.06 0.06 0.13 0.16 0.09 0.10 0.12 0.24 0.11 0.03 0.23 0.36 0.13 0.10 0.04 0.01 0.00 0.01 0.08 0.29 0.57 0.62 0.76 0.70 0.62 0.33 0.06 0.02 0.00 0.00 0.01 0.04 0.07 0.15 0.34 0.42 0.23 0.16 0.17 0.31 0.41 0.18
0.07 0.07 0.08 0.09 0.08 0.06 0.06 0.15 0.17 0.08 0.11 0.11 0.14 0.10 0.08 0.13 0.19 0.15 0.17 0.20 0.14 0.12 0.10 0.20 0.51 0.39 0.44 0.61 0.45 0.43 0.38 0.13 0.06 0.02 0.01 0.01 0.02 0.02 0.03 0.11 0.22 0.27 0.24 0.24 0.30 0.21 0.26
0.06 0.09 0.12 0.12 0.12 0.10 0.08 0.08 0.14 0.09 0.12 0.12 0.10 0.03 0.02 0.03 0.10 0.25 0.21 0.10 0.10 0.20 0.38 0.34 0.11 0.06 0.10 0.11 0.25 0.23 0.24 0.18 0.16 0.08 0.05 0.02 0.00 0.00 0.00 0.00 0.02 0.01 0.05 0.13 0.19 0.27 0.27
0.05 0.06 0.07 0.10 0.12 0.16 0.14 0.11 0.13 0.11 0.09 0.09 0.05 0.03 0.06 0.04 0.01 0.05 0.16 0.22 0.17 0.16 0.13 0.06 0.02 0.03 0.02 0.01 0.00 0.00 0.00 0.00 0.00 0.02 0.03 0.02 0.00 0.00 0.00 0.00 0.00 0.00 0.00 0.00 0.02 0.04 0.12
0.06 0.05 0.05 0.05 0.07 0.11 0.20 0.24 0.23 0.20 0.05 0.04 0.02 0.03 0.08 0.02 0.01 0.01 0.01 0.03 0.04 0.02 0.08 0.05 0.05 0.04 0.02 0.00 0.01 0.01 0.00 0.00 0.00 0.00 0.00 0.00 0.00 0.00 0.00 0.00 0.01 0.00 0.01 0.00 0.08 0.15 0.06
0.07 0.06 0.05 0.05 0.05 0.07 0.13 0.19 0.19 0.22 0.15 0.02 0.02 0.05 0.05 0.03 0.00 0.00 0.00 0.02 0.05 0.05 0.04 0.05 0.05 0.07 0.10 0.04 0.06 0.03 0.01 0.02 0.00 0.00 0.00 0.00 0.00 0.00 0.00 0.00 0.00 0.02 0.00 0.00 0.03 0.06 0.04
0.05 0.06 0.06 0.06 0.05 0.05 0.06 0.11 0.20 0.22 0.26 0.11 0.01 0.04 0.10 0.11 0.02 0.00 0.00 0.01 0.03 0.09 0.10 0.06 0.08 0.16 0.13 0.16 0.12 0.07 0.04 0.05 0.03 0.01 0.00 0.00 0.00 0.01 0.01 0.02 0.01 0.02 0.01 0.00 0.00 0.06 0.02
0.06 0.06 0.07 0.06 0.06 0.05 0.06 0.08 0.14 0.20 0.30 0.20 0.04 0.02 0.13 0.13 0.01 0.00 0.00 0.01 0.01 0.03 0.08 0.12 0.13 0.21 0.20 0.11 0.08 0.03 0.04 0.04 0.11 0.11 0.04 0.01 0.02 0.03 0.01 0.05 0.02 0.00 0.00 0.00 0.06 0.06 0.01
0.06 0.05 0.05 0.05 0.05 0.04 0.08 0.12 0.18 0.25 0.31 0.29 0.14 0.01 0.06 0.07 0.01 0.00 0.00 0.02 0.03 0.07 0.13 0.17 0.28 0.18 0.18 0.10 0.08 0.05 0.09 0.10 0.08 0.13 0.14 0.08 0.10 0.05 0.05 0.09 0.06 0.00 0.01 0.08 0.11 0.02 0.02
0.03 0.04 0.05 0.05 0.06 0.08 0.08 0.10 0.16 0.29 0.45 0.61 0.37 0.03 0.06 0.11 0.02 0.01 0.00 0.00 0.01 0.08 0.24 0.28 0.25 0.36 0.25 0.28 0.18 0.12 0.16 0.12 0.09 0.16 0.21 0.29 0.10 0.06 0.05 0.11 0.19 0.14 0.09 0.09 0.03 0.06 0.07